Regional Weather Roundup
Issued by NWS Northern Indiana

Home | Current Version | Previous Version | Graphics & Text | Print | Product List | Glossary On
Versions: 1 2 3 4 5 6 7 8 9 10 11 12 13 14 15 16 17 18 19 20 21 22 23 24 25 26 27 28 29 30 31 32 33 34 35 36 37 38 39 40 41 42 43 44 45 46 47 48 49 50
000
ASUS43 KIWX 200300
RWRIWX

KIWX WEATHER ROUNDUP
NATIONAL WEATHER SERVICE NORTHERN INDIANA
1100 PM EDT TUE AUG 19 2014

NOTE: "FAIR" INDICATES FEW OR NO CLOUDS BELOW 12,000 FEET WITH NO
SIGNIFICANT WEATHER AND/OR OBSTRUCTIONS TO VISIBILITY.

* THESE STATIONS ARE NOT UNDER NWS QUALITY CONTROL. THEY ALSO MAY NOT
  REPORT WEATHER SUCH AS PRECIPITATION OR FOG.

INZ001>027-200400-
NORTHERN INDIANA

CITY           SKY/WX    TMP DP  RH WIND       PRES   REMARKS
GARY*          PTCLDY    77  68  73 SW10      29.76R
VALPARAISO     PTCLDY    71  65  81 S7        29.78R
KNOX*          PTCLDY    69  64  85 SW6       29.78R
SOUTH BEND     MOCLDY    73  67  81 SW9       29.78R
GOSHEN         CLOUDY    72  66  81 SW6       29.80R
MONTICELLO*    PTCLDY    66  65  96 S3        29.80R
WARSAW*        CLOUDY    70  68  94 S6        29.80R
ANGOLA*        MOCLDY    70  61  73 VRB3      29.80R
FORT WAYNE     LGT RAIN  70  68  93 W5        29.83R

$$
INZ028>050-200400-
CENTRAL INDIANA

CITY           SKY/WX    TMP DP  RH WIND       PRES   REMARKS
LAFAYETTE      CLEAR     66  63  90 NW3       29.80S
KOKOMO*        CLOUDY    70  64  83 SW6       29.82F
MUNCIE*        MOCLDY    73  69  87 SW3       29.82S
INDIANAPOLIS   TSTM      65  61  87 N24G55    29.85R FOG

$$
MIZ043>046-050>051-056>058-064>065-071>073-077>080-200400-
SOUTHWEST LOWER MICHIGAN

CITY           SKY/WX    TMP DP  RH WIND       PRES   REMARKS
BATTLE CREEK   MOCLDY    70  66  87 S6        29.79R
BENTON HARBOR  MOCLDY    71  66  84 SW3       29.75R
COLDWATER*     CLOUDY    69  67  94 CALM      29.79S
HILLSDALE*     MOCLDY    67  67 100 S5        29.81S
HOLLAND        PTCLDY    69  67  93 CALM      29.77R FOG
GRAND RAPIDS   MOCLDY    70  70 100 S5        29.77S FOG
KALAMAZOO      CLOUDY    70  65  84 S3        29.78R
STURGIS*       CLOUDY    70  66  88 S3        29.79R
THREE RIVERS*  FAIR      70  67  90 SW3       29.79S

$$
OHZ001>008-015>018-024>025-200400-
NORTHWEST OHIO

CITY           SKY/WX    TMP DP  RH WIND       PRES   REMARKS
DEFIANCE       CLOUDY    69  65  86 S7        29.82R
FINDLAY        CLOUDY    70  66  87 S7        29.82S
TOLEDO EXPRESS CLOUDY    67  65  93 CALM      29.81R
TOLEDO METCALF CLOUDY    68  65  90 E7        29.82R
LIMA           LGT RAIN  69  67  93 CALM      29.83S FOG

$$
&&



USA.gov is the U.S. government's official web portal to all federal, state and local government web resources and services.